Year,Month,Day,Hour,Minute,Value (Times are PST for temperature in C)
2014,07,24,00,00,12.90
2014,07,24,00,01,12.90
2014,07,24,00,02,12.90
2014,07,24,00,03,12.90
2014,07,24,00,04,12.90
2014,07,24,00,05,12.90
2014,07,24,00,06,12.90
2014,07,24,00,07,12.90
2014,07,24,00,08,12.80
2014,07,24,00,09,12.80
2014,07,24,00,10,12.80
2014,07,24,00,11,12.80
2014,07,24,00,12,12.80
2014,07,24,00,13,12.80
2014,07,24,00,14,12.80
2014,07,24,00,15,12.80
2014,07,24,00,16,12.80
2014,07,24,00,17,12.80
2014,07,24,00,18,12.80
2014,07,24,00,19,12.80
2014,07,24,00,20,12.80
2014,07,24,00,21,12.80
2014,07,24,00,22,12.80
2014,07,24,00,23,12.80
2014,07,24,00,24,12.80
2014,07,24,00,25,12.80
2014,07,24,00,26,12.80
2014,07,24,00,27,12.80
2014,07,24,00,28,12.80
2014,07,24,00,29,12.80
2014,07,24,00,30,12.80
2014,07,24,00,31,12.80
2014,07,24,00,32,12.80
2014,07,24,00,33,12.80
2014,07,24,00,34,12.80
2014,07,24,00,35,12.80
2014,07,24,00,36,12.80
2014,07,24,00,37,12.80
2014,07,24,00,38,12.80
2014,07,24,00,39,12.80
2014,07,24,00,40,12.80
2014,07,24,00,41,12.70
2014,07,24,00,42,12.80
2014,07,24,00,43,12.70
2014,07,24,00,44,12.70
2014,07,24,00,45,12.70
2014,07,24,00,46,12.70
2014,07,24,00,47,12.70
2014,07,24,00,48,12.70
2014,07,24,00,49,12.70
2014,07,24,00,50,12.70
2014,07,24,00,51,12.70
2014,07,24,00,52,12.70
2014,07,24,00,53,12.70
2014,07,24,00,54,12.70
2014,07,24,00,55,12.70
2014,07,24,00,56,12.70
2014,07,24,00,57,12.70
2014,07,24,00,58,12.70
2014,07,24,00,59,12.70
2014,07,24,01,00,12.70
2014,07,24,01,01,12.70
2014,07,24,01,02,12.70
2014,07,24,01,03,12.70
2014,07,24,01,04,12.70
2014,07,24,01,05,12.70
2014,07,24,01,06,12.70
2014,07,24,01,07,12.70
2014,07,24,01,08,12.70
2014,07,24,01,09,12.70
2014,07,24,01,10,12.70
2014,07,24,01,11,12.70
2014,07,24,01,12,12.70
2014,07,24,01,13,12.70
2014,07,24,01,14,12.70
2014,07,24,01,15,12.70
2014,07,24,01,16,12.70
2014,07,24,01,17,12.70
2014,07,24,01,18,12.70
2014,07,24,01,19,12.70
2014,07,24,01,20,12.70
2014,07,24,01,21,12.70
2014,07,24,01,22,12.70
2014,07,24,01,23,12.70
2014,07,24,01,24,12.70
2014,07,24,01,25,12.70
2014,07,24,01,26,12.70
2014,07,24,01,27,12.70
2014,07,24,01,28,12.70
2014,07,24,01,29,12.70
2014,07,24,01,30,12.70
2014,07,24,01,31,12.70
2014,07,24,01,32,12.70
2014,07,24,01,33,12.70
2014,07,24,01,34,12.70
2014,07,24,01,35,12.70
2014,07,24,01,36,12.70
2014,07,24,01,37,12.70
2014,07,24,01,38,12.70
2014,07,24,01,39,12.70
2014,07,24,01,40,12.70
2014,07,24,01,41,12.70
2014,07,24,01,42,12.70
2014,07,24,01,43,12.70
2014,07,24,01,44,12.70
2014,07,24,01,45,12.70
2014,07,24,01,46,12.70
2014,07,24,01,47,12.70
2014,07,24,01,48,12.70
2014,07,24,01,49,12.70
2014,07,24,01,50,12.70
2014,07,24,01,51,12.70
2014,07,24,01,52,12.70
2014,07,24,01,53,12.70
2014,07,24,01,54,12.70
2014,07,24,01,55,12.70
2014,07,24,01,56,12.70
2014,07,24,01,57,12.70
2014,07,24,01,58,12.70
2014,07,24,01,59,12.70
2014,07,24,02,00,12.70
2014,07,24,02,01,12.70
2014,07,24,02,02,12.70
2014,07,24,02,03,12.70
2014,07,24,02,04,12.70
2014,07,24,02,05,12.70
2014,07,24,02,06,12.70
2014,07,24,02,07,12.70
2014,07,24,02,08,12.70
2014,07,24,02,09,12.70
2014,07,24,02,10,12.70
2014,07,24,02,11,12.70
2014,07,24,02,12,12.70
2014,07,24,02,13,12.70
2014,07,24,02,14,12.70
2014,07,24,02,15,12.70
2014,07,24,02,16,12.70
2014,07,24,02,17,12.70
2014,07,24,02,18,12.70
2014,07,24,02,19,12.70
2014,07,24,02,20,12.70
2014,07,24,02,21,12.70
2014,07,24,02,22,12.70
2014,07,24,02,23,12.70
2014,07,24,02,24,12.70
2014,07,24,02,25,12.70
2014,07,24,02,26,12.70
2014,07,24,02,27,12.70
2014,07,24,02,28,12.70
2014,07,24,02,29,12.70
2014,07,24,02,30,12.70
2014,07,24,02,31,12.70
2014,07,24,02,32,12.70
2014,07,24,02,33,12.70
2014,07,24,02,34,12.70
2014,07,24,02,35,12.70
2014,07,24,02,36,12.70
2014,07,24,02,37,12.70
2014,07,24,02,38,12.70
2014,07,24,02,39,12.70
2014,07,24,02,40,12.70
2014,07,24,02,41,12.70
2014,07,24,02,42,12.70
2014,07,24,02,43,12.70
2014,07,24,02,44,12.70
2014,07,24,02,45,12.70
2014,07,24,02,46,12.70
2014,07,24,02,47,12.70
2014,07,24,02,48,12.70
2014,07,24,02,49,12.70
2014,07,24,02,50,12.70
2014,07,24,02,51,12.70
2014,07,24,02,52,12.70
2014,07,24,02,53,12.70
2014,07,24,02,54,12.70
2014,07,24,02,55,12.70
2014,07,24,02,56,12.70
2014,07,24,02,57,12.70
2014,07,24,02,58,12.70
2014,07,24,02,59,12.70
2014,07,24,03,00,12.70
2014,07,24,03,01,12.70
2014,07,24,03,02,12.70
2014,07,24,03,03,12.70
2014,07,24,03,04,12.70
2014,07,24,03,05,12.70
2014,07,24,03,06,12.70
2014,07,24,03,07,12.70
2014,07,24,03,08,12.70
2014,07,24,03,09,12.70
2014,07,24,03,10,12.70
2014,07,24,03,11,12.70
2014,07,24,03,12,12.70
2014,07,24,03,13,12.70
2014,07,24,03,14,12.70
2014,07,24,03,15,12.70
2014,07,24,03,16,12.70
2014,07,24,03,17,12.70
2014,07,24,03,18,12.70
2014,07,24,03,19,12.70
2014,07,24,03,20,12.70
2014,07,24,03,21,12.70
2014,07,24,03,22,12.70
2014,07,24,03,23,12.70
2014,07,24,03,24,12.70
2014,07,24,03,25,12.70
2014,07,24,03,26,12.70
2014,07,24,03,27,12.70
2014,07,24,03,28,12.70
2014,07,24,03,29,12.70
2014,07,24,03,30,12.70
2014,07,24,03,31,12.70
2014,07,24,03,32,12.70
2014,07,24,03,33,12.70
2014,07,24,03,34,12.70
2014,07,24,03,35,12.70
2014,07,24,03,36,12.70
2014,07,24,03,37,12.70
2014,07,24,03,38,12.70
2014,07,24,03,39,12.70
2014,07,24,03,40,12.70
2014,07,24,03,41,12.70
2014,07,24,03,42,12.70
2014,07,24,03,43,12.70
2014,07,24,03,44,12.70
2014,07,24,03,45,12.70
2014,07,24,03,46,12.70
2014,07,24,03,47,12.70
2014,07,24,03,48,12.70
2014,07,24,03,49,12.70
2014,07,24,03,50,12.70
2014,07,24,03,51,12.70
2014,07,24,03,52,12.70
2014,07,24,03,53,12.70
2014,07,24,03,54,12.70
2014,07,24,03,55,12.70
2014,07,24,03,56,12.70
2014,07,24,03,57,12.70
2014,07,24,03,58,12.70
2014,07,24,03,59,12.70
2014,07,24,04,00,12.70
2014,07,24,04,01,12.70
2014,07,24,11,06,16.20
2014,07,24,11,07,16.30
2014,07,24,11,08,16.30
2014,07,24,11,09,16.20
2014,07,24,11,10,16.20
2014,07,24,11,11,16.20
2014,07,24,11,12,16.30
2014,07,24,11,13,16.30
2014,07,24,11,14,16.30
2014,07,24,11,15,16.30
2014,07,24,11,16,16.40
2014,07,24,11,17,16.40
2014,07,24,11,18,16.50
2014,07,24,11,19,16.50
2014,07,24,11,20,16.60
2014,07,24,11,21,16.60
2014,07,24,11,22,16.70
2014,07,24,11,23,16.80
2014,07,24,11,24,16.80
2014,07,24,11,25,16.80
2014,07,24,11,26,16.90
2014,07,24,11,27,16.90
2014,07,24,11,28,16.90
2014,07,24,11,29,17.00
2014,07,24,11,30,17.00
2014,07,24,11,31,17.10
2014,07,24,11,32,17.10
2014,07,24,11,33,17.10
2014,07,24,11,34,17.10
2014,07,24,11,35,17.10
2014,07,24,11,36,17.20
2014,07,24,11,37,17.20
2014,07,24,11,38,17.30
2014,07,24,11,39,17.40
2014,07,24,11,40,17.40
2014,07,24,11,41,17.40
2014,07,24,11,42,17.40
2014,07,24,11,43,17.40
2014,07,24,11,44,17.40
2014,07,24,11,45,17.50
2014,07,24,11,46,17.50
2014,07,24,11,47,17.50
2014,07,24,11,48,17.60
2014,07,24,11,49,17.50
2014,07,24,11,50,17.50
2014,07,24,11,51,17.50
2014,07,24,11,52,17.50
2014,07,24,11,53,17.50
2014,07,24,11,54,17.50
2014,07,24,11,55,17.60
2014,07,24,11,56,17.60
2014,07,24,11,57,17.60
2014,07,24,11,58,17.60
2014,07,24,11,59,17.50
2014,07,24,12,00,17.50
2014,07,24,12,01,17.40
2014,07,24,12,02,17.40
2014,07,24,12,03,17.40
2014,07,24,12,04,17.40
2014,07,24,12,05,17.50
2014,07,24,12,06,17.60
2014,07,24,12,07,17.60
2014,07,24,12,08,17.70
2014,07,24,12,09,17.80
2014,07,24,12,10,17.90
2014,07,24,12,11,17.90
2014,07,24,12,12,17.90
2014,07,24,12,13,17.90
2014,07,24,12,14,18.00
2014,07,24,12,15,18.00
2014,07,24,12,16,18.10
2014,07,24,12,17,18.10
2014,07,24,12,18,18.00
2014,07,24,12,19,18.00
2014,07,24,12,20,18.00
2014,07,24,12,21,18.00
2014,07,24,12,22,18.00
2014,07,24,12,23,18.00
2014,07,24,12,24,18.00
2014,07,24,12,25,18.00
2014,07,24,12,26,18.00
2014,07,24,12,27,18.00
2014,07,24,12,28,18.00
2014,07,24,12,29,18.00
2014,07,24,12,30,17.90
2014,07,24,12,31,17.90
2014,07,24,12,32,17.80
2014,07,24,12,33,17.80
2014,07,24,12,34,17.80
2014,07,24,12,35,17.80
2014,07,24,12,36,17.80
2014,07,24,12,37,17.90
2014,07,24,12,38,17.90
2014,07,24,12,39,17.90
2014,07,24,12,40,18.00
2014,07,24,12,41,18.10
2014,07,24,12,42,18.20
2014,07,24,12,43,18.30
2014,07,24,12,44,18.40
2014,07,24,12,45,18.40
2014,07,24,12,46,18.40
2014,07,24,12,47,18.50
2014,07,24,12,48,18.50
2014,07,24,12,49,18.50
2014,07,24,12,50,18.50
2014,07,24,12,51,18.40
2014,07,24,12,52,18.30
2014,07,24,12,53,18.30
2014,07,24,12,54,18.30
2014,07,24,12,55,18.30
2014,07,24,12,56,18.30
2014,07,24,12,57,18.40
2014,07,24,12,58,18.40
2014,07,24,12,59,18.50
2014,07,24,13,00,18.50
2014,07,24,13,01,18.50
2014,07,24,13,02,18.60
2014,07,24,13,03,18.60
2014,07,24,13,04,18.60
2014,07,24,13,05,18.70
2014,07,24,13,06,18.70
2014,07,24,13,07,18.70
2014,07,24,13,08,18.80
2014,07,24,13,09,18.80
2014,07,24,13,10,18.90
2014,07,24,13,11,19.00
2014,07,24,13,12,19.00
2014,07,24,13,13,19.00
2014,07,24,13,14,19.00
2014,07,24,13,15,19.10
2014,07,24,13,16,19.10
2014,07,24,13,17,19.10
2014,07,24,13,18,19.20
2014,07,24,13,19,19.20
2014,07,24,13,20,19.20
2014,07,24,13,21,19.30
2014,07,24,13,22,19.30
2014,07,24,13,23,19.30
2014,07,24,13,24,19.30
2014,07,24,13,25,19.30
2014,07,24,13,26,19.30
2014,07,24,13,27,19.30
2014,07,24,13,28,19.20
2014,07,24,13,29,19.10
2014,07,24,13,30,19.10
2014,07,24,13,31,19.00
2014,07,24,13,32,18.90
2014,07,24,13,33,18.90
2014,07,24,13,34,18.90
2014,07,24,13,35,18.90
2014,07,24,13,36,19.00
2014,07,24,13,37,19.00
2014,07,24,13,38,19.10
2014,07,24,13,39,19.10
2014,07,24,13,40,19.10
2014,07,24,13,41,19.10
2014,07,24,13,42,19.00
2014,07,24,13,43,18.90
2014,07,24,13,44,18.80
2014,07,24,13,45,18.80
2014,07,24,13,46,18.80
2014,07,24,13,47,18.70
2014,07,24,13,48,18.70
2014,07,24,13,49,18.70
2014,07,24,13,50,18.70
2014,07,24,13,51,18.60
2014,07,24,13,52,18.60
2014,07,24,13,53,18.60
2014,07,24,13,54,18.60
2014,07,24,13,55,18.60
2014,07,24,13,56,18.50
2014,07,24,13,57,18.50
2014,07,24,13,58,18.40
2014,07,24,13,59,18.40
2014,07,24,14,00,18.50
2014,07,24,14,01,18.50
2014,07,24,14,02,18.60
2014,07,24,14,03,18.70
2014,07,24,14,04,18.80
2014,07,24,14,05,18.90
2014,07,24,14,06,18.90
2014,07,24,14,07,18.90
2014,07,24,14,08,19.00
2014,07,24,14,09,19.10
2014,07,24,14,10,19.10
2014,07,24,14,11,19.10
2014,07,24,14,12,19.20
2014,07,24,14,13,19.20
2014,07,24,14,14,19.10
2014,07,24,14,15,19.00
2014,07,24,14,16,19.00
2014,07,24,14,17,18.90
2014,07,24,14,18,18.80
2014,07,24,14,19,18.80
2014,07,24,14,20,18.70
2014,07,24,14,21,18.80
2014,07,24,14,22,18.80
2014,07,24,14,23,18.80
2014,07,24,14,24,18.80
2014,07,24,14,25,18.80
2014,07,24,14,26,18.70
2014,07,24,14,27,18.70
2014,07,24,14,28,18.70
2014,07,24,14,29,18.60
2014,07,24,14,30,18.60
2014,07,24,14,31,18.60
2014,07,24,14,32,18.60
2014,07,24,14,33,18.60
2014,07,24,14,34,18.50
2014,07,24,14,35,18.50
2014,07,24,14,36,18.50
2014,07,24,14,37,18.40
2014,07,24,14,38,18.40
2014,07,24,14,39,18.30
2014,07,24,14,40,18.30
2014,07,24,14,41,18.20
2014,07,24,14,42,18.20
2014,07,24,14,43,18.20
2014,07,24,14,44,18.20
2014,07,24,14,45,18.20
2014,07,24,14,46,18.20
2014,07,24,14,47,18.20
2014,07,24,14,48,18.20
2014,07,24,14,49,18.20
2014,07,24,14,50,18.20
2014,07,24,14,51,18.20
2014,07,24,14,52,18.20
2014,07,24,14,53,18.30
2014,07,24,14,54,18.30
2014,07,24,14,55,18.40
2014,07,24,14,56,18.50
2014,07,24,14,57,18.60
2014,07,24,14,58,18.60
2014,07,24,14,59,18.60
2014,07,24,15,00,18.70
2014,07,24,15,01,18.70
2014,07,24,15,02,18.70
2014,07,24,15,03,18.70
2014,07,24,15,04,18.80
2014,07,24,15,05,18.90
2014,07,24,15,06,18.90
2014,07,24,15,07,18.90
2014,07,24,15,08,19.00
2014,07,24,15,09,19.00
2014,07,24,15,10,19.10
2014,07,24,15,11,19.10
2014,07,24,15,12,19.10
2014,07,24,15,13,19.20
2014,07,24,15,14,19.30
2014,07,24,15,15,19.30
2014,07,24,15,16,19.40
2014,07,24,15,17,19.40
2014,07,24,15,18,19.50
2014,07,24,15,19,19.60
2014,07,24,15,20,19.70
2014,07,24,15,21,19.80
2014,07,24,15,22,19.80
2014,07,24,15,23,19.80
2014,07,24,15,24,19.90
2014,07,24,15,25,20.00
2014,07,24,15,26,20.00
2014,07,24,15,27,20.10
2014,07,24,15,28,20.20
2014,07,24,15,29,20.30
2014,07,24,15,30,20.40
2014,07,24,15,31,20.50
2014,07,24,15,32,20.50
2014,07,24,15,33,20.50
2014,07,24,15,34,20.50
2014,07,24,15,35,20.40
2014,07,24,15,36,20.30
2014,07,24,15,37,20.30
2014,07,24,15,38,20.30
2014,07,24,15,39,20.20
2014,07,24,15,40,20.20
2014,07,24,15,41,20.20
2014,07,24,15,42,20.30
2014,07,24,15,43,20.30
2014,07,24,15,44,20.30
2014,07,24,15,45,20.20
2014,07,24,15,46,20.20
2014,07,24,15,47,20.00
2014,07,24,15,48,19.90
2014,07,24,15,49,19.80
2014,07,24,15,50,19.70
2014,07,24,15,51,19.60
2014,07,24,15,52,19.60
2014,07,24,15,53,19.60
2014,07,24,15,54,19.60
2014,07,24,15,55,19.70
2014,07,24,15,56,19.70
2014,07,24,15,57,19.70
2014,07,24,15,58,19.70
2014,07,24,15,59,19.70
2014,07,24,16,00,19.80
2014,07,24,16,01,19.80
2014,07,24,16,02,19.80
2014,07,24,16,03,19.80
2014,07,24,16,04,19.80
2014,07,24,16,05,19.80
2014,07,24,16,06,19.90
2014,07,24,16,07,19.90
2014,07,24,16,08,19.90
2014,07,24,16,09,20.00
2014,07,24,16,10,20.00
2014,07,24,16,11,20.00
2014,07,24,16,12,20.00
2014,07,24,16,13,20.00
2014,07,24,16,14,20.00
2014,07,24,16,15,20.00
2014,07,24,16,16,20.00
2014,07,24,16,17,20.10
2014,07,24,16,18,20.00
2014,07,24,16,19,20.00
2014,07,24,16,20,20.00
2014,07,24,16,21,20.00
2014,07,24,16,22,20.00
2014,07,24,16,23,20.00
2014,07,24,16,24,20.00
2014,07,24,16,25,20.00
2014,07,24,16,26,20.00
2014,07,24,16,27,20.00
2014,07,24,16,28,20.00
2014,07,24,16,29,19.90
2014,07,24,16,30,19.80
2014,07,24,16,31,19.80
2014,07,24,16,32,19.80
2014,07,24,16,33,19.80
2014,07,24,16,34,19.70
2014,07,24,16,35,19.70
2014,07,24,16,36,19.70
2014,07,24,16,37,19.60
2014,07,24,16,38,19.60
2014,07,24,16,39,19.60
2014,07,24,16,40,19.50
2014,07,24,16,41,19.50
2014,07,24,16,42,19.40
2014,07,24,16,43,19.40
2014,07,24,16,44,19.40
2014,07,24,16,45,19.40
2014,07,24,16,46,19.40
2014,07,24,16,47,19.40
2014,07,24,16,48,19.30
2014,07,24,16,49,19.30
2014,07,24,16,50,19.30
2014,07,24,16,51,19.30
2014,07,24,16,52,19.20
2014,07,24,16,53,19.20
2014,07,24,16,54,19.20
2014,07,24,16,55,19.20
2014,07,24,16,56,19.20
2014,07,24,16,57,19.20
2014,07,24,16,58,19.20
2014,07,24,16,59,19.20
2014,07,24,17,00,19.20
2014,07,24,17,01,19.20
2014,07,24,17,02,19.20
2014,07,24,17,03,19.20
2014,07,24,17,04,19.20
2014,07,24,17,05,19.20
2014,07,24,17,06,19.20
2014,07,24,17,07,19.20
2014,07,24,17,08,19.20
2014,07,24,17,09,19.30
2014,07,24,17,10,19.30
2014,07,24,17,11,19.40
2014,07,24,17,12,19.50
2014,07,24,17,13,19.60
2014,07,24,17,14,19.70
2014,07,24,17,15,19.80
2014,07,24,17,16,20.00
2014,07,24,17,17,20.10
2014,07,24,17,18,20.10
2014,07,24,17,19,20.20
2014,07,24,17,20,20.30
2014,07,24,17,21,20.30
2014,07,24,17,22,20.30
2014,07,24,17,23,20.30
2014,07,24,17,24,20.40
2014,07,24,17,25,20.40
2014,07,24,17,26,20.40
2014,07,24,17,27,20.30
2014,07,24,17,28,20.30
2014,07,24,17,29,20.30
2014,07,24,17,30,20.30
2014,07,24,17,31,20.20
2014,07,24,17,32,20.20
2014,07,24,17,33,20.10
2014,07,24,17,34,20.00
2014,07,24,17,35,20.00
2014,07,24,17,36,19.90
2014,07,24,17,37,19.80
2014,07,24,17,38,19.80
2014,07,24,17,39,19.80
2014,07,24,17,40,19.70
2014,07,24,17,41,19.70
2014,07,24,17,42,19.70
2014,07,24,17,43,19.70
2014,07,24,17,44,19.70
2014,07,24,17,45,19.70
2014,07,24,17,46,19.60
2014,07,24,17,47,19.60
2014,07,24,17,48,19.60
2014,07,24,17,49,19.60
2014,07,24,17,50,19.60
2014,07,24,17,51,19.50
2014,07,24,17,52,19.40
2014,07,24,17,53,19.40
2014,07,24,17,54,19.40
2014,07,24,17,55,19.40
2014,07,24,17,56,19.40
2014,07,24,17,57,19.40
2014,07,24,17,58,19.40
2014,07,24,17,59,19.30
2014,07,24,18,00,19.30
2014,07,24,18,01,19.30
2014,07,24,18,02,19.30
2014,07,24,18,03,19.30
2014,07,24,18,04,19.30
2014,07,24,18,05,19.30
2014,07,24,18,06,19.30
2014,07,24,18,07,19.30
2014,07,24,18,08,19.30
2014,07,24,18,09,19.30
2014,07,24,18,10,19.20
2014,07,24,18,11,19.20
2014,07,24,18,12,19.20
2014,07,24,18,13,19.10
2014,07,24,18,14,19.10
2014,07,24,18,15,19.10
2014,07,24,18,16,19.00
2014,07,24,18,17,18.90
2014,07,24,18,18,18.90
2014,07,24,18,19,18.90
2014,07,24,18,20,18.80
2014,07,24,18,21,18.80
2014,07,24,18,22,18.80
2014,07,24,18,23,18.80
2014,07,24,18,24,18.70
2014,07,24,18,25,18.70
2014,07,24,18,26,18.70
2014,07,24,18,27,18.70
2014,07,24,18,28,18.60
2014,07,24,18,29,18.60
2014,07,24,18,30,18.60
2014,07,24,18,31,18.60
2014,07,24,18,32,18.60
2014,07,24,18,33,18.50
2014,07,24,18,34,18.50
2014,07,24,18,35,18.40
2014,07,24,18,36,18.40
2014,07,24,18,37,18.40
2014,07,24,18,38,18.40
2014,07,24,18,39,18.30
2014,07,24,18,40,18.30
2014,07,24,18,41,18.30
2014,07,24,18,42,18.30
2014,07,24,18,43,18.20
2014,07,24,18,44,18.20
2014,07,24,18,45,18.20
2014,07,24,18,46,18.20
2014,07,24,18,47,18.10
2014,07,24,18,48,18.10
2014,07,24,18,49,18.10
2014,07,24,18,50,18.00
2014,07,24,18,51,18.00
2014,07,24,18,52,18.00
2014,07,24,18,53,17.90
2014,07,24,18,54,17.90
2014,07,24,18,55,17.90
2014,07,24,18,56,17.90
2014,07,24,18,57,17.80
2014,07,24,18,58,17.80
2014,07,24,18,59,17.80
2014,07,24,19,00,17.80
2014,07,24,19,01,17.80
2014,07,24,19,02,17.70
2014,07,24,19,03,17.70
2014,07,24,19,04,17.70
2014,07,24,19,05,17.70
2014,07,24,19,06,17.70
2014,07,24,19,07,17.70
2014,07,24,19,08,17.70
2014,07,24,19,09,17.70
2014,07,24,19,10,17.70
2014,07,24,19,11,17.70
2014,07,24,19,12,17.60
2014,07,24,19,13,17.60
2014,07,24,19,14,17.60
2014,07,24,19,15,17.60
2014,07,24,19,16,17.60
2014,07,24,19,17,17.60
2014,07,24,19,18,17.60
2014,07,24,19,19,17.60
2014,07,24,19,20,17.60
2014,07,24,19,21,17.60
2014,07,24,19,22,17.60
2014,07,24,19,23,17.60
2014,07,24,19,24,17.60
2014,07,24,19,25,17.60
2014,07,24,19,26,17.60
2014,07,24,19,27,17.50
2014,07,24,19,28,17.50
2014,07,24,19,29,17.50
2014,07,24,19,30,17.50
2014,07,24,19,31,17.50
2014,07,24,19,32,17.50
2014,07,24,19,33,17.50
2014,07,24,19,34,17.50
2014,07,24,19,35,17.50
2014,07,24,19,36,17.50
2014,07,24,19,37,17.50
2014,07,24,19,38,17.50
2014,07,24,19,39,17.50
2014,07,24,19,40,17.50
2014,07,24,19,41,17.50
2014,07,24,19,42,17.50
2014,07,24,19,43,17.50
2014,07,24,19,44,17.50
2014,07,24,19,45,17.50
2014,07,24,19,46,17.50
2014,07,24,19,47,17.50
2014,07,24,19,48,17.60
2014,07,24,19,49,17.50
2014,07,24,19,50,17.50
2014,07,24,19,51,17.50
2014,07,24,19,52,17.50
2014,07,24,19,53,17.50
2014,07,24,19,54,17.50
2014,07,24,19,55,17.50
2014,07,24,19,56,17.50
2014,07,24,19,57,17.50
2014,07,24,19,58,17.50
2014,07,24,19,59,17.50
2014,07,24,20,00,17.50
2014,07,24,20,01,17.50
2014,07,24,20,02,17.50
2014,07,24,20,03,17.50
2014,07,24,20,04,17.40
2014,07,24,20,05,17.40
2014,07,24,20,06,17.40
2014,07,24,20,07,17.40
2014,07,24,20,08,17.40
2014,07,24,20,09,17.40
2014,07,24,20,10,17.40
2014,07,24,20,11,17.40
2014,07,24,20,12,17.30
2014,07,24,20,13,17.30
2014,07,24,20,14,17.30
2014,07,24,20,15,17.20
2014,07,24,20,16,17.20
2014,07,24,20,17,17.20
2014,07,24,20,18,17.20
2014,07,24,20,19,17.20
2014,07,24,20,20,17.20
2014,07,24,20,21,17.20
2014,07,24,20,22,17.10
2014,07,24,20,23,17.10
2014,07,24,20,24,17.10
2014,07,24,20,25,17.10
2014,07,24,20,26,17.10
2014,07,24,20,27,17.10
2014,07,24,20,28,17.10
2014,07,24,20,29,17.10
2014,07,24,20,30,17.10
2014,07,24,20,31,17.10
2014,07,24,20,32,17.00
2014,07,24,20,33,17.00
2014,07,24,20,34,17.00
2014,07,24,20,35,17.00
2014,07,24,20,36,16.90
2014,07,24,20,37,16.90
2014,07,24,20,38,16.90
2014,07,24,20,39,16.90
2014,07,24,20,40,16.90
2014,07,24,20,41,16.80
2014,07,24,20,42,16.80
2014,07,24,20,43,16.80
2014,07,24,20,44,16.80
2014,07,24,20,45,16.80
2014,07,24,20,46,16.80
2014,07,24,20,47,16.80
2014,07,24,20,48,16.80
2014,07,24,20,49,16.70
2014,07,24,20,50,16.70
2014,07,24,20,51,16.70
2014,07,24,20,52,16.70
2014,07,24,20,53,16.60
2014,07,24,20,54,16.60
2014,07,24,20,55,16.60
2014,07,24,20,56,16.60
2014,07,24,20,57,16.60
2014,07,24,20,58,16.60
2014,07,24,20,59,16.60
2014,07,24,21,00,16.50
2014,07,24,21,01,16.50
2014,07,24,21,02,16.50
2014,07,24,21,03,16.50
2014,07,24,21,04,16.50
2014,07,24,21,05,16.50
2014,07,24,21,06,16.50
2014,07,24,21,07,16.50
2014,07,24,21,08,16.50
2014,07,24,21,09,16.50
2014,07,24,21,10,16.50
2014,07,24,21,11,16.50
2014,07,24,21,12,16.50
2014,07,24,21,13,16.40
2014,07,24,21,14,16.50
2014,07,24,21,15,16.40
2014,07,24,21,16,16.40
2014,07,24,21,17,16.40
2014,07,24,21,18,16.40
2014,07,24,21,19,16.40
2014,07,24,21,20,16.40
2014,07,24,21,21,16.30
2014,07,24,21,22,16.30
2014,07,24,21,23,16.30
2014,07,24,21,24,16.30
2014,07,24,21,25,16.30
2014,07,24,21,26,16.30
2014,07,24,21,27,16.30
2014,07,24,21,28,16.30
2014,07,24,21,29,16.30
2014,07,24,21,30,16.30
2014,07,24,21,31,16.30
2014,07,24,21,32,16.30
2014,07,24,21,33,16.30
2014,07,24,21,34,16.30
2014,07,24,21,35,16.30
2014,07,24,21,36,16.20
2014,07,24,21,37,16.20
2014,07,24,21,38,16.20
2014,07,24,21,39,16.20
2014,07,24,21,40,16.20
2014,07,24,21,41,16.20
2014,07,24,21,42,16.20
2014,07,24,21,43,16.20
2014,07,24,21,44,16.10
2014,07,24,21,45,16.10
2014,07,24,21,46,16.10
2014,07,24,21,47,16.10
2014,07,24,21,48,16.10
2014,07,24,21,49,16.10
2014,07,24,21,50,16.10
2014,07,24,21,51,16.10
2014,07,24,21,52,16.00
2014,07,24,21,53,16.00
2014,07,24,21,54,16.00
2014,07,24,21,55,16.00
2014,07,24,21,56,15.90
2014,07,24,21,57,16.00
2014,07,24,21,58,15.90
2014,07,24,21,59,15.90
2014,07,24,22,00,15.90
2014,07,24,22,01,15.90
2014,07,24,22,02,15.90
2014,07,24,22,03,15.90
2014,07,24,22,04,15.90
2014,07,24,22,05,15.90
2014,07,24,22,06,15.90
2014,07,24,22,07,15.90
2014,07,24,22,08,15.90
2014,07,24,22,09,15.90
2014,07,24,22,10,15.80
2014,07,24,22,11,15.80
2014,07,24,22,12,15.80
2014,07,24,22,13,15.80
2014,07,24,22,14,15.80
2014,07,24,22,15,15.80
2014,07,24,22,16,15.80
2014,07,24,22,17,15.80
2014,07,24,22,18,15.80
2014,07,24,22,19,15.80
2014,07,24,22,20,15.80
2014,07,24,22,21,15.80
2014,07,24,22,22,15.80
2014,07,24,22,23,15.80
2014,07,24,22,24,15.80
2014,07,24,22,25,15.70
2014,07,24,22,26,15.70
2014,07,24,22,27,15.70
2014,07,24,22,28,15.70
2014,07,24,22,29,15.70
2014,07,24,22,30,15.70
2014,07,24,22,31,15.70
2014,07,24,22,32,15.70
2014,07,24,22,33,15.70
2014,07,24,22,34,15.70
2014,07,24,22,35,15.70
2014,07,24,22,36,15.70
2014,07,24,22,37,15.70
2014,07,24,22,38,15.70
2014,07,24,22,39,15.70
2014,07,24,22,40,15.70
2014,07,24,22,41,15.60
2014,07,24,22,42,15.60
2014,07,24,22,43,15.60
2014,07,24,22,44,15.60
2014,07,24,22,45,15.60
2014,07,24,22,46,15.60
2014,07,24,22,47,15.60
2014,07,24,22,48,15.60
2014,07,24,22,49,15.50
2014,07,24,22,50,15.50
2014,07,24,22,51,15.50
2014,07,24,22,52,15.50
2014,07,24,22,53,15.50
2014,07,24,22,54,15.50
2014,07,24,22,55,15.50
2014,07,24,22,56,15.50
2014,07,24,22,57,15.50
2014,07,24,22,58,15.50
2014,07,24,22,59,15.40
2014,07,24,23,00,15.40
2014,07,24,23,01,15.40
2014,07,24,23,02,15.40
2014,07,24,23,03,15.40
2014,07,24,23,04,15.40
2014,07,24,23,05,15.40
2014,07,24,23,06,15.30
2014,07,24,23,07,15.30
2014,07,24,23,08,15.30
2014,07,24,23,09,15.30
2014,07,24,23,10,15.30
2014,07,24,23,11,15.30
2014,07,24,23,12,15.30
2014,07,24,23,13,15.30
2014,07,24,23,14,15.30
2014,07,24,23,15,15.20
2014,07,24,23,16,15.20
2014,07,24,23,17,15.20
2014,07,24,23,18,15.20
2014,07,24,23,19,15.20
2014,07,24,23,20,15.20
2014,07,24,23,21,15.20
2014,07,24,23,22,15.20
2014,07,24,23,23,15.10
2014,07,24,23,24,15.10
2014,07,24,23,25,15.10
2014,07,24,23,26,15.10
2014,07,24,23,27,15.10
2014,07,24,23,28,15.10
2014,07,24,23,29,15.10
2014,07,24,23,30,15.10
2014,07,24,23,31,15.10
2014,07,24,23,32,15.10
2014,07,24,23,33,15.10
2014,07,24,23,34,15.10
2014,07,24,23,35,15.10
2014,07,24,23,36,15.10
2014,07,24,23,37,15.10
2014,07,24,23,38,15.10
2014,07,24,23,39,15.10
2014,07,24,23,40,15.10
2014,07,24,23,41,15.10
2014,07,24,23,42,15.00
2014,07,24,23,43,15.10
2014,07,24,23,44,15.10
2014,07,24,23,45,15.00
2014,07,24,23,46,15.10
2014,07,24,23,47,15.10
2014,07,24,23,48,15.10
2014,07,24,23,49,15.10
2014,07,24,23,50,15.10
2014,07,24,23,51,15.10
2014,07,24,23,52,15.10
2014,07,24,23,53,15.10
2014,07,24,23,54,15.10
2014,07,24,23,55,15.10
2014,07,24,23,56,15.10
2014,07,24,23,57,15.00
2014,07,24,23,58,15.00
2014,07,24,23,59,15.00
